Weather History for Jackson, WY

Change the Weather History Date:

Monday, November 12, 2012

  Actual Average Record
Temperature  
Mean Temperature 19 °F -  
Max Temperature 30 °F 40 °F 62 °F (1999)
Min Temperature 8 °F 15 °F -11 °F (2014)
Degree Days  
Heating Degree Days 46    
Moisture  
Dew Point 15 °F    
Average Humidity 82    
Maximum Humidity 100    
Minimum Humidity 51    
Precipitation  
Precipitation 0.00 in - - ()
Sea Level Pressure  
Sea Level Pressure 30.31 in    
Wind  
Wind Speed 10 mph (SSW)    
Max Wind Speed 16 mph    
Max Gust Speed -    
Visibility 9 miles    
Events Snow    
Averages and records for this station are not official NWS values.
T = Trace of Precipitation, MM = Missing Value Source: NWS Daily Summary

Daily Weather History Graph

Daily Weather History Graph

Search for Another Location

Airport:

Trip Planner

Search our weather history database for the weather conditions in past years. The results will help you decide how hot, cold, wet, or windy it might be!

Date:

Astronomy

Nov. 12, 2012 Rise Set
Actual Time 7:13 AM MST 5:00 PM MST
Civil Twilight 6:43 AM MST 5:30 PM MST
Nautical Twilight 6:08 AM MST 6:05 PM MST
Astronomical Twilight 5:34 AM MST 6:39 PM MST
Moon 5:41 AM MST (11/12) 4:08 PM MST (11/12)
Length of Visible Light 10h 47m
Length of Day
9h 46m
Waning Crescent, 2% of the Moon is Illuminated
Nov 12
Waning Crescent
Nov 13
New
Nov 20
First Quarter
Nov 28
Full
Dec 6
Last Quarter

Hourly Weather History & Observations

Time (MST) Temp. Windchill Dew Point Humidity Pressure Visibility Wind Dir Wind Speed Gust Speed Precip Events Conditions
12:35 AM 19.4 °F 7.9 °F 14.0 °F 80% 30.28 in 10.0 mi South 10.4 mph - N/A   Partly Cloudy
12:55 AM 19.4 °F 6.0 °F 14.0 °F 80% 30.28 in 10.0 mi South 13.8 mph - N/A   Scattered Clouds
1:15 AM 19.4 °F 5.0 °F 14.0 °F 80% 30.28 in 10.0 mi South 16.1 mph - N/A   Mostly Cloudy
1:35 AM 19.4 °F 7.2 °F 14.0 °F 80% 30.29 in 10.0 mi South 11.5 mph - N/A   Scattered Clouds
1:55 AM 19.4 °F 7.2 °F 14.0 °F 80% 30.29 in 10.0 mi South 11.5 mph - N/A   Scattered Clouds
2:15 AM 19.4 °F 7.9 °F 14.0 °F 80% 30.30 in 10.0 mi South 10.4 mph - N/A   Scattered Clouds
2:35 AM 17.6 °F 5.0 °F 14.0 °F 86% 30.30 in 10.0 mi South 11.5 mph - N/A   Scattered Clouds
2:55 AM 19.4 °F 5.5 °F 14.0 °F 80% 30.30 in 10.0 mi South 15.0 mph - N/A   Overcast
3:15 AM 17.6 °F 5.0 °F 14.0 °F 86% 30.31 in 10.0 mi South 11.5 mph - N/A   Mostly Cloudy
3:36 AM 17.6 °F 7.3 °F 14.0 °F 86% 30.31 in 10.0 mi South 8.1 mph - N/A   Partly Cloudy
3:55 AM 15.8 °F 8.6 °F 12.2 °F 86% 30.31 in 10.0 mi North 4.6 mph - N/A   Partly Cloudy
4:15 AM 12.2 °F - 10.4 °F 92% 30.32 in 10.0 mi Calm Calm - N/A   Clear
4:35 AM 10.4 °F -0.4 °F 8.6 °F 92% 30.33 in 10.0 mi North 6.9 mph - N/A   Clear
4:55 AM 10.4 °F 4.0 °F 8.6 °F 92% 30.33 in 10.0 mi North 3.5 mph - N/A   Clear
5:15 AM 10.4 °F -2.4 °F 8.6 °F 92% 30.34 in 10.0 mi North 9.2 mph - N/A   Clear
5:35 AM 10.4 °F -0.4 °F 8.6 °F 92% 30.34 in 10.0 mi North 6.9 mph - N/A   Clear
5:55 AM 10.4 °F 0.8 °F 8.6 °F 92% 30.35 in 10.0 mi North 5.8 mph - N/A   Clear
6:15 AM 8.6 °F 0.1 °F 6.8 °F 92% 30.35 in 10.0 mi NE 4.6 mph - N/A   Clear
6:54 AM 8.6 °F -1.3 °F 6.8 °F 92% 30.36 in 10.0 mi North 5.8 mph - N/A   Clear
6:55 AM 8.6 °F 2.0 °F 6.8 °F 92% 30.36 in 10.0 mi North 3.5 mph - N/A   Clear
7:54 AM 10.4 °F 0.8 °F 8.6 °F 92% 30.37 in 10.0 mi North 5.8 mph - N/A   Clear
8:51 AM 15.8 °F 8.6 °F 10.4 °F 79% 30.38 in 10.0 mi NNE 4.6 mph - N/A   Clear
9:51 AM 21.2 °F 14.9 °F 14.0 °F 74% 30.38 in 10.0 mi SE 4.6 mph - N/A   Clear
10:52 AM 26.6 °F 15.7 °F 14.0 °F 59% 30.36 in 10.0 mi South 12.7 mph - N/A   Partly Cloudy
11:52 AM 28.4 °F 17.5 °F 15.8 °F 59% 30.34 in 10.0 mi South 13.8 mph - N/A   Partly Cloudy
12:52 PM 28.4 °F 17.5 °F 14.0 °F 55% 30.31 in 10.0 mi South 13.8 mph - N/A   Scattered Clouds
1:51 PM 28.4 °F 18.0 °F 14.0 °F 55% 30.30 in 10.0 mi South 12.7 mph - N/A   Scattered Clouds
2:55 PM 30.2 °F 19.8 °F 14.0 °F 51% 30.29 in 10.0 mi South 13.8 mph - N/A   Mostly Cloudy
3:51 PM 28.4 °F 17.5 °F 14.0 °F 55% 30.29 in 10.0 mi South 13.8 mph - N/A   Overcast
4:53 PM 28.4 °F 19.1 °F 15.8 °F 59% 30.29 in 10.0 mi South 10.4 mph - N/A   Scattered Clouds
6:57 PM 26.6 °F 15.7 °F 19.4 °F 74% 30.30 in 10.0 mi South 12.7 mph - N/A   Overcast
7:52 PM 24.8 °F 19.1 °F 21.2 °F 86% 30.30 in 7.0 mi South 4.6 mph - N/A Snow Light Snow
8:53 PM 24.8 °F 16.1 °F 21.2 °F 86% 30.30 in 8.0 mi SSW 8.1 mph - N/A Snow Light Snow
8:55 PM 24.8 °F 15.3 °F 21.2 °F 86% 30.30 in 8.0 mi SW 9.2 mph - N/A   Overcast
9:15 PM 24.8 °F 14.6 °F 23.0 °F 93% 30.30 in 4.0 mi SW 10.4 mph - N/A   Overcast
9:35 PM 24.8 °F 15.3 °F 23.0 °F 93% 30.29 in 5.0 mi SW 9.2 mph - N/A   Overcast
9:55 PM 23.0 °F 13.1 °F 21.2 °F 93% 30.29 in 10.0 mi SW 9.2 mph - N/A   Overcast
10:15 PM 23.0 °F 13.1 °F 23.0 °F 100% 30.29 in 10.0 mi SW 9.2 mph - N/A   Overcast
10:35 PM 24.8 °F 14.6 °F 23.0 °F 93% 30.29 in 7.0 mi SW 10.4 mph - N/A   Overcast
10:55 PM 24.8 °F 15.3 °F 23.0 °F 93% 30.28 in 9.0 mi SW 9.2 mph - N/A   Overcast
11:15 PM 24.8 °F 14.0 °F 23.0 °F 93% 30.28 in 7.0 mi SW 11.5 mph - N/A   Overcast
11:35 PM 23.0 °F 11.7 °F 21.2 °F 93% 30.29 in 5.0 mi SW 11.5 mph - N/A   Overcast
11:55 PM 23.0 °F 12.4 °F 21.2 °F 93% 30.29 in 8.0 mi SW 10.4 mph - N/A   Mostly Cloudy